Radiation Dose at Monitoring Post of Fukushima Daini Nuclear Power Station
Date,Time,MP-1(microSv/h),MP-2(microSv/h),MP-3(microSv/h),MP-4(microSv/h),MP-5(microSv/h),MP-6(microSv/h),MP-7(microSv/h),Wind Direction,Wind Velocity(m/s),Rain
2014/08/27,00:00,0.6,0.4,0.7,0.6,0.6,0.3,0.2,north-northeast,8.9,Yes
2014/08/27,00:10,0.6,0.4,0.7,0.6,0.6,0.3,0.2,north-northeast,8.6,Yes
2014/08/27,00:20,0.6,0.4,0.7,0.6,0.6,0.3,0.2,north-northeast,8.9,Yes
2014/08/27,00:30,0.6,0.4,0.7,0.6,0.6,0.3,0.2,northeast,9.9,No
2014/08/27,00:40,0.6,0.4,0.7,0.6,0.6,0.3,0.2,northeast,9.1,No
2014/08/27,00:50,0.6,0.4,0.7,0.6,0.6,0.3,0.2,northeast,8.3,No
2014/08/27,01:00,0.6,0.4,0.7,0.6,0.6,0.3,0.2,northeast,8.0,No
2014/08/27,01:10,0.6,0.4,0.7,0.6,0.6,0.3,0.2,northeast,8.9,Yes
2014/08/27,01:20,0.6,0.4,0.7,0.6,0.6,0.3,0.2,north-northeast,7.9,Yes
2014/08/27,01:30,0.6,0.4,0.7,0.6,0.6,0.3,0.2,northeast,9.2,Yes
2014/08/27,01:40,0.6,0.4,0.7,0.6,0.6,0.3,0.2,northeast,7.0,Yes
2014/08/27,01:50,0.6,0.4,0.7,0.6,0.6,0.3,0.2,northeast,8.0,Yes
2014/08/27,02:00,0.6,0.4,0.7,0.6,0.6,0.3,0.2,north-northeast,6.1,Yes
2014/08/27,02:10,0.6,0.4,0.7,0.6,0.6,0.3,0.2,northeast,6.9,Yes
2014/08/27,02:20,0.6,0.4,0.7,0.6,0.6,0.3,0.2,north-northeast,5.0,Yes
2014/08/27,02:30,0.6,0.4,0.7,0.6,0.6,0.3,0.2,north,5.2,Yes
2014/08/27,02:40,0.6,0.4,0.7,0.6,0.6,0.3,0.2,north,5.5,No
2014/08/27,02:50,0.6,0.4,0.7,0.6,0.6,0.3,0.2,north,6.5,No
2014/08/27,03:00,0.6,0.4,0.7,0.6,0.6,0.3,0.2,north,7.2,No
2014/08/27,03:10,0.6,0.4,0.7,0.6,0.6,0.3,0.2,north,6.6,No
2014/08/27,03:20,0.6,0.4,0.7,0.6,0.6,0.3,0.2,north,6.4,No
2014/08/27,03:30,0.6,0.4,0.7,0.6,0.6,0.3,0.2,north,5.3,No
2014/08/27,03:40,0.6,0.4,0.7,0.6,0.6,0.3,0.2,north-northwest,5.8,No
2014/08/27,03:50,0.6,0.4,0.7,0.6,0.6,0.3,0.2,north-northwest,6.2,No
2014/08/27,04:00,0.6,0.4,0.7,0.6,0.6,0.3,0.2,north,5.9,No
2014/08/27,04:10,0.6,0.4,0.7,0.6,0.6,0.3,0.2,north-northwest,5.6,No
2014/08/27,04:20,0.6,0.4,0.7,0.6,0.6,0.3,0.2,north,7.0,No
2014/08/27,04:30,0.6,0.4,0.7,0.6,0.6,0.3,0.2,north-northwest,5.9,No
2014/08/27,04:40,0.6,0.4,0.7,0.6,0.6,0.3,0.2,north,6.7,No
2014/08/27,04:50,0.6,0.4,0.7,0.6,0.6,0.3,0.2,north,6.4,No
2014/08/27,05:00,0.6,0.4,0.7,0.6,0.6,0.3,0.2,north,6.7,No
2014/08/27,05:10,0.6,0.4,0.7,0.6,0.6,0.3,0.2,north,6.7,No
2014/08/27,05:20,0.6,0.4,0.7,0.6,0.6,0.3,0.2,north,6.4,Yes
2014/08/27,05:30,0.6,0.4,0.7,0.6,0.6,0.3,0.2,north,6.5,Yes
2014/08/27,05:40,0.6,0.4,0.7,0.6,0.6,0.3,0.2,north,6.3,Yes
2014/08/27,05:50,0.6,0.4,0.7,0.6,0.6,0.3,0.2,north,6.6,Yes
2014/08/27,06:00,0.6,0.4,0.7,0.6,0.6,0.3,0.2,north-northwest,6.0,Yes
2014/08/27,06:10,0.6,0.4,0.7,0.6,0.6,0.3,0.2,north,5.9,Yes
2014/08/27,06:20,0.6,0.4,0.7,0.6,0.6,0.3,0.2,north,7.0,Yes
2014/08/27,06:30,0.6,0.4,0.7,0.6,0.6,0.3,0.2,north,6.4,No
2014/08/27,06:40,0.6,0.4,0.7,0.6,0.6,0.3,0.2,north,5.6,No
2014/08/27,06:50,0.6,0.4,0.7,0.6,0.6,0.3,0.2,north,5.7,Yes
2014/08/27,07:00,0.6,0.4,0.7,0.6,0.6,0.3,0.2,north-northwest,5.7,Yes
2014/08/27,07:10,0.6,0.4,0.7,0.6,0.6,0.3,0.2,north,5.7,Yes
2014/08/27,07:20,0.6,0.4,0.7,0.6,0.6,0.3,0.2,north-northwest,5.7,Yes
2014/08/27,07:30,0.6,0.4,0.7,0.6,0.6,0.3,0.2,north-northwest,5.8,No
2014/08/27,07:40,0.6,0.4,0.7,0.6,0.6,0.3,0.2,north-northwest,6.1,Yes
2014/08/27,07:50,0.6,0.4,0.7,0.6,0.6,0.3,0.2,north-northwest,6.7,Yes
2014/08/27,08:00,0.6,0.4,0.7,0.6,0.6,0.3,0.2,north-northwest,6.8,Yes
2014/08/27,08:10,0.6,0.4,0.7,0.6,0.6,0.3,0.2,north-northwest,7.1,No
2014/08/27,08:20,0.6,0.4,0.7,0.6,0.6,0.3,0.2,north-northwest,6.1,No
2014/08/27,08:30,0.6,0.4,0.7,0.6,0.6,0.3,0.2,north-northwest,5.3,No
2014/08/27,08:40,0.6,0.4,0.7,0.6,0.6,0.3,0.2,north-northwest,5.6,No
2014/08/27,08:50,0.6,0.4,0.7,0.6,0.6,0.3,0.2,north-northwest,5.4,No
2014/08/27,09:00,0.6,0.4,0.7,0.6,0.6,0.3,0.2,north-northwest,5.9,No
2014/08/27,09:10,0.6,0.4,0.7,0.6,0.6,0.3,0.2,north-northwest,6.2,No
2014/08/27,09:20,0.6,0.4,0.7,0.6,0.6,0.3,0.2,north-northwest,5.9,Yes
2014/08/27,09:30,0.6,0.4,0.7,0.6,0.6,0.3,0.2,north-northwest,5.8,Yes
2014/08/27,09:40,0.6,0.4,0.7,0.6,0.6,0.3,0.2,north-northwest,5.6,Yes
2014/08/27,09:50,0.6,0.4,0.7,0.6,0.6,0.3,0.2,north-northwest,5.4,Yes
2014/08/27,10:00,0.6,0.4,0.7,0.6,0.6,0.3,0.2,north-northwest,4.5,Yes
2014/08/27,10:10,0.6,0.4,0.7,0.6,0.6,0.3,0.2,north-northwest,4.4,Yes
2014/08/27,10:20,0.6,0.4,0.7,0.6,0.6,0.3,0.2,north,5.0,Yes
2014/08/27,10:30,0.6,0.4,0.7,0.6,0.6,0.3,0.2,north-northwest,4.8,Yes
2014/08/27,10:40,0.6,0.4,0.7,0.6,0.6,0.3,0.2,-,-,Yes
2014/08/27,10:50,0.6,0.4,0.7,0.6,0.6,0.3,0.2,-,-,Yes
2014/08/27,11:00,0.6,0.4,0.7,0.6,0.6,0.3,0.2,-,-,Yes
2014/08/27,11:10,0.6,0.4,0.7,0.6,0.6,0.3,0.2,-,-,Yes
2014/08/27,11:20,0.6,0.4,0.7,0.6,0.6,0.3,0.2,-,-,Yes
2014/08/27,11:30,0.6,0.4,0.7,0.6,0.6,0.3,0.2,-,-,Yes
2014/08/27,11:40,0.6,0.4,0.7,0.6,0.6,0.3,0.2,-,-,Yes
2014/08/27,11:50,0.6,0.4,0.7,0.6,0.6,0.3,0.2,-,-,Yes
2014/08/27,12:00,0.6,0.4,0.7,0.6,0.6,0.3,0.2,-,-,Yes
2014/08/27,12:10,0.6,0.4,0.7,0.6,0.6,0.3,0.2,-,-,Yes
2014/08/27,12:20,0.6,0.4,0.7,0.6,0.6,0.3,0.2,-,-,Yes
2014/08/27,12:30,0.6,0.4,0.7,0.6,0.6,0.3,0.2,-,-,Yes
2014/08/27,12:40,0.6,0.4,0.7,0.6,0.6,0.3,0.2,-,-,Yes
2014/08/27,12:50,0.6,0.4,0.7,0.6,0.6,0.3,0.2,-,-,Yes
2014/08/27,13:00,0.6,0.4,0.7,0.6,0.6,0.3,0.2,-,-,Yes
2014/08/27,13:10,0.6,0.4,0.7,0.6,0.6,0.3,0.2,-,-,Yes
2014/08/27,13:20,0.6,0.4,0.7,0.6,0.6,0.3,0.2,-,-,Yes
2014/08/27,13:30,0.6,0.4,0.7,0.6,0.6,0.3,0.2,-,-,Yes
2014/08/27,13:40,0.6,0.4,0.7,0.6,0.6,0.3,0.2,-,-,Yes
2014/08/27,13:50,0.6,0.4,0.7,0.6,0.6,0.3,0.2,-,-,No
2014/08/27,14:00,0.6,0.4,0.7,0.6,0.6,0.3,0.2,-,-,Yes
2014/08/27,14:10,0.6,0.4,0.7,0.6,0.6,0.3,0.2,-,-,No
2014/08/27,14:20,0.6,0.4,0.7,0.6,0.6,0.3,0.2,-,-,No
2014/08/27,14:30,0.6,0.4,0.7,0.6,0.6,0.3,0.2,-,-,No
2014/08/27,14:40,0.6,0.4,0.7,0.6,0.6,0.3,0.2,-,-,No
2014/08/27,14:50,0.6,0.4,0.7,0.6,0.6,0.3,0.2,-,-,No
2014/08/27,15:00,0.6,0.4,0.7,0.6,0.6,0.3,0.2,-,-,No
2014/08/27,15:10,0.6,0.4,0.7,0.6,0.6,0.3,0.2,-,-,No
2014/08/27,15:20,0.6,0.4,0.7,0.6,0.6,0.3,0.2,-,-,No
2014/08/27,15:30,0.6,0.4,0.7,0.6,0.6,0.3,0.2,-,-,No
2014/08/27,15:40,0.6,0.4,0.7,0.6,0.6,0.3,0.2,northwest,3.6,No
2014/08/27,15:50,0.6,0.4,0.7,0.6,0.6,0.3,0.2,northwest,3.3,No
2014/08/27,16:00,0.6,0.4,0.7,0.6,0.6,0.3,0.2,northwest,3.4,No
2014/08/27,16:10,0.6,0.4,0.7,0.6,0.6,0.3,0.2,north-northwest,3.4,No
2014/08/27,16:20,0.6,0.4,0.7,0.6,0.6,0.3,0.2,north-northwest,4.4,No
2014/08/27,16:30,0.6,0.4,0.7,0.6,0.6,0.3,0.2,north-northwest,4.6,No
2014/08/27,16:40,0.6,0.4,0.7,0.6,0.6,0.3,0.2,northwest,4.1,No
2014/08/27,16:50,0.6,0.4,0.7,0.6,0.6,0.3,0.2,north-northwest,3.4,No
2014/08/27,17:00,0.6,0.4,0.7,0.6,0.6,0.3,0.2,north-northwest,3.9,No
2014/08/27,17:10,0.6,0.4,0.7,0.6,0.6,0.3,0.2,north,3.9,No
2014/08/27,17:20,0.6,0.4,0.7,0.6,0.6,0.3,0.2,north-northwest,4.0,No
2014/08/27,17:30,0.6,0.4,0.7,0.6,0.6,0.3,0.2,north,4.4,No
2014/08/27,17:40,0.6,0.4,0.7,0.6,0.6,0.3,0.2,north,4.6,No
2014/08/27,17:50,0.6,0.4,0.7,0.6,0.6,0.3,0.2,north,5.0,No
2014/08/27,18:00,0.6,0.4,0.7,0.6,0.6,0.3,0.2,north-northwest,4.7,No
2014/08/27,18:10,0.6,0.4,0.7,0.6,0.6,0.3,0.2,north-northwest,4.8,No
2014/08/27,18:20,0.6,0.4,0.7,0.6,0.6,0.3,0.2,north-northwest,4.8,No
2014/08/27,18:30,0.6,0.4,0.7,0.6,0.6,0.3,0.2,north-northwest,4.6,No
2014/08/27,18:40,0.6,0.4,0.7,0.6,0.6,0.3,0.2,north-northwest,4.4,Yes
2014/08/27,18:50,0.6,0.4,0.7,0.6,0.6,0.3,0.2,north-northwest,5.0,Yes
2014/08/27,19:00,0.6,0.4,0.7,0.6,0.6,0.3,0.2,north-northwest,4.5,No
2014/08/27,19:10,0.6,0.4,0.7,0.6,0.6,0.3,0.2,north-northwest,5.3,No
2014/08/27,19:20,0.6,0.4,0.7,0.6,0.6,0.3,0.2,north-northwest,5.4,No
2014/08/27,19:30,0.6,0.4,0.7,0.6,0.6,0.3,0.2,north-northwest,4.8,No
2014/08/27,19:40,0.6,0.4,0.7,0.6,0.6,0.3,0.2,north-northwest,4.5,Yes
2014/08/27,19:50,0.6,0.4,0.7,0.6,0.6,0.3,0.2,north-northwest,5.0,Yes
2014/08/27,20:00,0.6,0.4,0.7,0.6,0.6,0.3,0.2,north-northwest,4.7,Yes
2014/08/27,20:10,0.6,0.4,0.7,0.6,0.6,0.3,0.2,north-northwest,4.5,Yes
2014/08/27,20:20,0.6,0.4,0.7,0.6,0.6,0.3,0.2,north-northwest,4.2,Yes
2014/08/27,20:30,0.6,0.4,0.7,0.6,0.6,0.3,0.2,north-northwest,3.9,Yes
2014/08/27,20:40,0.6,0.4,0.7,0.6,0.6,0.3,0.2,northwest,3.5,Yes
2014/08/27,20:50,0.6,0.4,0.7,0.6,0.6,0.3,0.2,northwest,3.3,Yes
2014/08/27,21:00,0.6,0.4,0.7,0.6,0.6,0.3,0.2,north-northwest,3.1,Yes
2014/08/27,21:10,0.6,0.4,0.7,0.6,0.6,0.3,0.2,northwest,3.4,Yes
2014/08/27,21:20,0.6,0.4,0.7,0.6,0.6,0.3,0.2,north-northwest,2.9,Yes
2014/08/27,21:30,0.6,0.4,0.7,0.6,0.6,0.3,0.2,north-northwest,3.3,Yes
2014/08/27,21:40,0.6,0.4,0.7,0.6,0.6,0.3,0.2,north-northwest,3.3,Yes
2014/08/27,21:50,0.6,0.4,0.7,0.6,0.6,0.3,0.2,northwest,1.6,Yes
2014/08/27,22:00,0.6,0.4,0.7,0.6,0.6,0.3,0.2,north-northwest,2.0,Yes
2014/08/27,22:10,0.6,0.4,0.7,0.6,0.6,0.3,0.2,north-northwest,1.8,Yes
2014/08/27,22:20,0.6,0.4,0.7,0.6,0.6,0.3,0.2,north-northwest,2.5,Yes
2014/08/27,22:30,0.6,0.4,0.7,0.6,0.6,0.3,0.2,north,3.3,Yes
2014/08/27,22:40,0.6,0.4,0.7,0.6,0.6,0.3,0.2,north,4.1,No
2014/08/27,22:50,0.6,0.4,0.7,0.6,0.6,0.3,0.2,north,3.4,No
2014/08/27,23:00,0.6,0.4,0.7,0.6,0.6,0.3,0.2,north,3.3,Yes
2014/08/27,23:10,0.6,0.4,0.7,0.6,0.6,0.3,0.2,north,3.6,Yes
2014/08/27,23:20,0.6,0.4,0.7,0.6,0.6,0.3,0.2,north,3.6,Yes
2014/08/27,23:30,0.6,0.4,0.7,0.6,0.6,0.3,0.2,north-northwest,2.9,No
2014/08/27,23:40,0.6,0.4,0.7,0.6,0.6,0.3,0.2,north-northwest,2.9,No
2014/08/27,23:50,0.6,0.4,0.7,0.6,0.6,0.3,0.2,north-northwest,2.6,No
